Weather History for KEDE - December, 2013

Change the Weather History Date:

Saturday, December 21, 2013

  Actual Average Record
Temperature  
Mean Temperature 62 °F -  
Max Temperature 72 °F 54 °F 76 °F (1967)
Min Temperature 52 °F 36 °F 7 °F (1942)
Degree Days  
Heating Degree Days 4    
Growing Degree Days 12 (Base 50)    
Moisture  
Dew Point 59 °F    
Average Humidity 91    
Maximum Humidity 100    
Minimum Humidity 71    
Precipitation  
Precipitation 0.00 in - - ()
Sea Level Pressure  
Sea Level Pressure 30.14 in    
Wind  
Wind Speed 7 mph (SSW)    
Max Wind Speed 12 mph    
Max Gust Speed -    
Visibility 9 miles    
Events Fog    
Averages and records for this station are not official NWS values.
T = Trace of Precipitation, MM = Missing Value Source: NWS Daily Summary

Daily Weather History Graph

Daily Weather History Graph

Search for Another Location

Airport or City:

Trip Planner

Search our weather history database for the weather conditions in past years. The results will help you decide how hot, cold, wet, or windy it might be!

Date:

Astronomy

Dec. 21, 2013 Rise Set
Actual Time 7:13 AM EST 4:55 PM EST
Civil Twilight 6:44 AM EST 5:24 PM EST
Nautical Twilight 6:12 AM EST 5:56 PM EST
Astronomical Twilight 5:41 AM EST 6:27 PM EST
Moon 9:03 PM EST (12/21) 9:44 AM EST (12/21)
Length of Visible Light 10h 39m
Length of Day
9h 42m
Waning Gibbous, 84% of the Moon is Illuminated
Dec 21
Waning Gibbous
Dec 25
Last Quarter
Jan 1
New
Jan 7
First Quarter
Jan 15
Full

Hourly Weather History & Observations

Time (EST) Temp. Dew Point Humidity Pressure Visibility Wind Dir Wind Speed Gust Speed Precip Events Conditions
12:15 AM 54.3 °F 54.3 °F 100% 30.17 in 1.8 mi South 4.6 mph - N/A   Mist
12:35 AM 54.1 °F 54.1 °F 100% 30.17 in 2.0 mi South 3.5 mph - N/A   Clear
12:55 AM 53.4 °F 53.4 °F 100% 30.17 in 0.5 mi South 4.6 mph - N/A Fog Fog
1:15 AM 52.7 °F 52.7 °F 100% 30.17 in 0.8 mi South 4.6 mph - N/A   Mist
1:35 AM 52.9 °F 52.9 °F 100% 30.16 in 2.5 mi SSW 3.5 mph - N/A   Clear
1:55 AM 53.1 °F 53.1 °F 100% 30.17 in 10.0 mi SSW 5.8 mph - N/A   Mostly Cloudy
2:15 AM 52.9 °F 52.9 °F 100% 30.17 in 7.0 mi South 6.9 mph - N/A   Scattered Clouds
2:35 AM 53.6 °F 53.6 °F 100% 30.17 in 10.0 mi SSW 5.8 mph - N/A   Clear
2:55 AM 54.0 °F 54.0 °F 100% 30.17 in 10.0 mi SSW 5.8 mph - N/A   Clear
3:15 AM 54.3 °F 54.3 °F 100% 30.16 in 10.0 mi SSW 4.6 mph - N/A   Clear
3:35 AM 53.6 °F 53.6 °F 100% 30.15 in 10.0 mi SSW 5.8 mph - N/A   Clear
3:55 AM 53.8 °F 53.8 °F 100% 30.15 in 10.0 mi SSW 5.8 mph - N/A   Scattered Clouds
4:15 AM 55.9 °F 55.8 °F 99% 30.14 in 10.0 mi SW 6.9 mph - N/A   Overcast
4:35 AM 57.4 °F 55.8 °F 94% 30.15 in 10.0 mi SW 8.1 mph - N/A   Overcast
4:55 AM 56.7 °F 55.2 °F 95% 30.15 in 10.0 mi SW 8.1 mph - N/A   Scattered Clouds
5:15 AM 56.3 °F 54.9 °F 95% 30.14 in 10.0 mi SW 6.9 mph - N/A   Clear
5:35 AM 56.7 °F 55.0 °F 94% 30.15 in 10.0 mi SSW 5.8 mph - N/A   Clear
5:55 AM 56.3 °F 54.7 °F 94% 30.15 in 10.0 mi SSW 6.9 mph - N/A   Clear
6:15 AM 55.8 °F 54.7 °F 96% 30.16 in 10.0 mi SW 5.8 mph - N/A   Scattered Clouds
6:35 AM 56.1 °F 54.7 °F 95% 30.17 in 10.0 mi SSW 5.8 mph - N/A   Scattered Clouds
6:55 AM 55.8 °F 54.9 °F 97% 30.17 in 10.0 mi South 5.8 mph - N/A   Clear
7:15 AM 55.8 °F 55.0 °F 97% 30.18 in 10.0 mi SSW 6.9 mph - N/A   Clear
7:35 AM 55.4 °F 54.5 °F 97% 30.18 in 10.0 mi South 4.6 mph - N/A   Scattered Clouds
7:55 AM 55.9 °F 55.4 °F 98% 30.19 in 10.0 mi SSW 5.8 mph - N/A   Clear
8:15 AM 56.7 °F 55.8 °F 97% 30.18 in 10.0 mi South 6.9 mph - N/A   Clear
8:35 AM 57.2 °F 56.5 °F 97% 30.18 in 10.0 mi South 5.8 mph - N/A   Clear
8:55 AM 58.6 °F 57.7 °F 97% 30.18 in 10.0 mi South 8.1 mph - N/A   Clear
9:15 AM 59.9 °F 58.6 °F 96% 30.18 in 10.0 mi SSW 6.9 mph - N/A   Clear
9:35 AM 61.3 °F 59.5 °F 94% 30.18 in 10.0 mi SSW 9.2 mph - N/A   Clear
9:55 AM 62.6 °F 59.5 °F 90% 30.19 in 10.0 mi SW 9.2 mph - N/A   Scattered Clouds
10:15 AM 63.5 °F 59.9 °F 88% 30.18 in 10.0 mi SW 9.2 mph - N/A   Mostly Cloudy
10:35 AM 64.8 °F 59.7 °F 84% 30.19 in 10.0 mi SSW 6.9 mph - N/A   Scattered Clouds
10:55 AM 65.5 °F 58.6 °F 79% 30.18 in 10.0 mi SW 8.1 mph - N/A   Clear
11:15 AM 66.4 °F 58.8 °F 77% 30.18 in 10.0 mi SW 8.1 mph - N/A   Mostly Cloudy
11:35 AM 66.6 °F 59.0 °F 77% 30.17 in 10.0 mi SSW 8.1 mph - N/A   Scattered Clouds
11:55 AM 68.0 °F 59.7 °F 75% 30.15 in 10.0 mi SSW 9.2 mph - N/A   Clear
12:15 PM 69.3 °F 59.9 °F 72% 30.15 in 10.0 mi SSW 10.4 mph - N/A   Clear
12:35 PM 68.9 °F 60.1 °F 73% 30.14 in 10.0 mi SSW 10.4 mph - N/A   Clear
12:55 PM 69.6 °F 60.8 °F 73% 30.12 in 10.0 mi South 8.1 mph - N/A   Clear
1:15 PM 70.7 °F 61.2 °F 72% 30.12 in 10.0 mi SSW 8.1 mph - N/A   Clear
1:35 PM 71.1 °F 61.2 °F 71% 30.12 in 10.0 mi SSW 8.1 mph - N/A   Scattered Clouds
1:55 PM 71.6 °F 61.9 °F 71% 30.11 in 10.0 mi SSW 8.1 mph - N/A   Clear
2:15 PM 71.4 °F 61.5 °F 71% 30.10 in 10.0 mi SSW 10.4 mph - N/A   Clear
2:35 PM 71.8 °F 61.9 °F 71% 30.10 in 10.0 mi SSW 11.5 mph - N/A   Clear
2:55 PM 70.7 °F 61.7 °F 73% 30.10 in 10.0 mi South 9.2 mph - N/A   Clear
3:15 PM 70.2 °F 61.7 °F 74% 30.10 in 10.0 mi SSW 11.5 mph - N/A   Clear
3:35 PM 70.7 °F 61.9 °F 74% 30.10 in 10.0 mi SSW 10.4 mph - N/A   Clear
3:55 PM 70.2 °F 62.2 °F 76% 30.10 in 10.0 mi SSW 10.4 mph - N/A   Scattered Clouds
4:15 PM 69.8 °F 62.4 °F 77% 30.11 in 10.0 mi SSW 10.4 mph - N/A   Clear
4:35 PM 67.6 °F 61.7 °F 81% 30.10 in 10.0 mi South 9.2 mph - N/A   Clear
4:55 PM 65.7 °F 61.5 °F 86% 30.10 in 10.0 mi South 9.2 mph - N/A   Clear
5:15 PM 65.3 °F 61.9 °F 89% 30.10 in 10.0 mi South 10.4 mph - N/A   Clear
5:35 PM 64.2 °F 61.7 °F 91% 30.11 in 10.0 mi South 6.9 mph - N/A   Clear
5:55 PM 63.9 °F 61.7 °F 93% 30.12 in 10.0 mi South 10.4 mph - N/A   Clear
6:15 PM 62.8 °F 61.2 °F 94% 30.12 in 10.0 mi South 8.1 mph - N/A   Clear
6:35 PM 63.1 °F 61.7 °F 95% 30.12 in 10.0 mi South 9.2 mph - N/A   Clear
6:55 PM 62.6 °F 61.5 °F 96% 30.12 in 10.0 mi South 8.1 mph - N/A   Clear
7:15 PM 62.8 °F 61.7 °F 96% 30.12 in 10.0 mi South 8.1 mph - N/A   Clear
7:35 PM 61.9 °F 60.8 °F 96% 30.12 in 10.0 mi South 8.1 mph - N/A   Clear
7:55 PM 61.7 °F 61.2 °F 98% 30.12 in 10.0 mi South 9.2 mph - N/A   Clear
8:15 PM 62.2 °F 61.9 °F 99% 30.13 in 10.0 mi South 9.2 mph - N/A   Clear
8:35 PM 61.9 °F 61.7 °F 99% 30.13 in 10.0 mi South 8.1 mph - N/A   Clear
8:55 PM 62.6 °F 62.2 °F 99% 30.13 in 10.0 mi SSW 8.1 mph - N/A   Clear
9:15 PM 63.1 °F 62.6 °F 98% 30.12 in 10.0 mi South 10.4 mph - N/A   Clear
9:35 PM 63.0 °F 62.4 °F 98% 30.12 in 10.0 mi South 8.1 mph - N/A   Clear
9:55 PM 62.1 °F 61.7 °F 99% 30.12 in 10.0 mi South 8.1 mph - N/A   Clear
10:15 PM 62.8 °F 62.4 °F 99% 30.12 in 10.0 mi SSW 9.2 mph - N/A   Clear
10:35 PM 63.1 °F 62.6 °F 98% 30.12 in 10.0 mi SSW 9.2 mph - N/A   Clear
10:55 PM 63.1 °F 62.6 °F 98% 30.12 in 10.0 mi South 8.1 mph - N/A   Clear
11:15 PM 61.9 °F 61.2 °F 97% 30.12 in 10.0 mi South 5.8 mph - N/A   Clear
11:35 PM 60.3 °F 60.1 °F 99% 30.12 in 7.0 mi South 4.6 mph - N/A   Scattered Clouds
11:55 PM 61.3 °F 61.3 °F 100% 30.11 in 7.0 mi South 4.6 mph - N/A   Scattered Clouds